1484085600.69,49924,5.13,72552.3,-18.31,-50.25,-50.75,0,*6C
1484085601.92,49925,5.13,72548.5,-18.31,-50.47,-50.89,0,*6A
1484085603.17,49926,5.13,72550.3,-18.29,-50.33,-50.67,0,*63
1484085604.42,49927,5.13,72548.5,-18.29,-50.25,-50.67,0,*65
1484085605.68,49928,5.13,72544.8,-18.29,-50.25,-50.53,0,*6D
1484085606.95,49929,5.13,72548.5,-18.31,-50.25,-50.67,0,*62
1484085608.19,49930,5.13,72548.0,-18.31,-50.47,-50.75,0,*6D
1484085609.45,49931,5.13,72550.0,-18.31,-50.25,-50.47,0,*69
1484085610.69,49932,5.13,72550.0,-18.29,-50.25,-50.47,0,*63
1484085612.0,49933,5.13,72546.5,-18.31,-50.03,-50.33,0,*6C
1484085613.25,49934,5.13,72544.0,-18.29,-50.03,-50.47,0,*61
1484085614.51,49935,5.13,72542.8,-18.31,-50.25,-50.67,0,*6F
1484085615.76,49936,5.13,72544.3,-18.29,-50.25,-50.67,0,*65
1484085617.03,49937,5.13,72544.5,-18.31,-50.11,-50.47,0,*68
1484085618.28,49938,5.13,72542.5,-18.29,-50.11,-50.47,0,*6E
1484085619.55,49939,5.13,72542.8,-18.31,-50.11,-50.47,0,*66
1484085620.85,49940,5.13,72544.5,-18.31,-50.03,-50.53,0,*6E
1484085622.11,49941,5.13,72540.0,-18.29,-49.89,-50.33,0,*6A
1484085623.4,49942,5.13,72548.5,-18.31,-50.11,-50.53,0,*6F
1484085624.68,49943,5.13,72546.0,-18.31,-50.11,-50.47,0,*6B
1484085625.95,49944,5.13,72544.3,-18.31,-50.11,-50.47,0,*6C
1484085627.22,49945,5.13,72546.5,-18.29,-50.11,-50.53,0,*61
1484085628.51,49946,5.13,72544.3,-18.31,-50.25,-50.53,0,*6C
1484085629.78,49947,5.13,72550.3,-18.31,-50.33,-50.47,0,*6F
1484085631.05,49948,5.13,72544.5,-18.31,-50.25,-50.75,0,*66
1484085632.31,49949,5.13,72546.8,-18.31,-50.25,-50.47,0,*66
1484085633.55,49950,5.13,72544.5,-18.29,-50.25,-50.67,0,*65
1484085634.84,49951,5.13,72550.0,-18.31,-50.25,-50.53,0,*6A
1484085636.14,49952,5.13,72548.8,-18.31,-50.25,-50.33,0,*6F
1484085637.42,49953,5.13,72548.5,-18.29,-50.03,-50.33,0,*63
1484085638.69,49954,5.13,72542.5,-18.31,-50.25,-50.67,0,*68
1484085639.96,49955,5.13,72546.0,-18.31,-50.33,-50.89,0,*6E
1484085641.25,49956,5.13,72550.8,-18.31,-50.25,-50.53,0,*6D
1484085642.51,49957,5.13,72548.0,-18.31,-50.25,-50.67,0,*6B
1484085643.81,49958,5.13,72544.8,-18.31,-50.11,-50.25,0,*65
1484085645.08,49959,5.13,72544.0,-18.31,-50.11,-50.47,0,*60
1484085646.35,49960,5.13,72542.0,-18.31,-50.25,-50.67,0,*6F
1484085647.65,49961,5.13,72544.8,-18.31,-50.11,-50.53,0,*6E
1484085648.92,49962,5.13,72544.8,-18.31,-50.33,-50.67,0,*6A
1484085650.23,49963,5.13,72548.5,-18.31,-50.11,-50.33,0,*6A
1484085651.5,49964,5.13,72548.0,-18.31,-49.89,-50.25,0,*63
1484085652.8,49965,5.13,72548.3,-18.31,-50.11,-50.33,0,*6C
1484085654.09,49966,5.13,72546.5,-18.31,-50.25,-50.53,0,*6E
1484085655.36,49967,5.13,72544.5,-18.31,-50.33,-50.75,0,*6C
1484085656.66,49968,5.13,72544.8,-18.31,-50.11,-50.33,0,*61
1484085657.94,49969,5.13,72544.0,-18.31,-50.11,-50.47,0,*63
1484085659.24,49970,5.13,72548.3,-18.31,-50.03,-50.25,0,*6C
1484085660.51,49971,5.13,72550.0,-18.31,-49.89,-50.25,0,*67
1484085661.81,49972,5.13,72544.5,-18.31,-50.11,-50.33,0,*6A
1484085663.11,49973,5.13,72544.8,-18.31,-50.11,-50.33,0,*6B
1484085664.38,49974,5.13,72546.5,-18.31,-50.25,-50.67,0,*6A
1484085665.68,49975,5.13,72546.8,-18.31,-50.11,-50.53,0,*6B
1484085666.95,49976,5.13,72542.3,-18.31,-50.25,-50.67,0,*68
1484085668.22,49977,5.13,72544.5,-18.31,-50.11,-50.47,0,*6C
1484085669.49,49978,5.13,72546.8,-18.31,-50.11,-50.47,0,*63
1484085670.78,49979,5.13,72546.8,-18.31,-50.25,-50.53,0,*60
1484085672.05,49980,5.13,72550.8,-18.31,-50.25,-50.67,0,*61
1484085673.32,49981,5.13,72540.3,-18.31,-50.25,-50.67,0,*60
1484085674.61,49982,5.13,72544.5,-18.31,-50.11,-50.53,0,*63
1484085675.88,49983,5.13,72544.8,-18.31,-50.25,-50.47,0,*60
1484085677.15,49984,5.13,72542.5,-18.31,-50.33,-50.75,0,*61
1484085678.43,49985,5.13,72544.3,-18.31,-50.33,-50.67,0,*63
1484085679.7,49986,5.13,72544.5,-18.31,-50.11,-50.47,0,*62
1484085680.97,49987,5.13,72546.8,-18.31,-50.25,-50.39,0,*6D
1484085682.24,49988,5.13,72548.8,-18.31,-49.89,-50.33,0,*66
1484085683.54,49989,5.13,72544.5,-18.31,-50.03,-50.25,0,*6A
1484085684.85,49990,5.13,72548.5,-18.31,-50.11,-50.33,0,*66
1484085686.14,49991,5.13,72548.3,-18.31,-50.11,-50.25,0,*60
1484085687.42,49992,5.13,72550.3,-18.31,-50.11,-50.39,0,*6E
1484085688.69,49993,5.13,72550.0,-18.31,-49.89,-50.25,0,*6B
1484085689.99,49994,5.13,72546.3,-18.31,-50.03,-50.25,0,*66
1484085691.27,49995,5.13,72550.3,-18.31,-50.33,-50.67,0,*62
1484085692.54,49996,5.13,72550.3,-18.31,-50.11,-50.47,0,*63
1484085693.8,49997,5.13,72548.0,-18.31,-50.25,-50.47,0,*65
1484085695.07,49998,5.13,72548.5,-18.31,-50.25,-50.47,0,*6A
1484085696.34,49999,5.13,72550.3,-18.31,-50.11,-50.47,0,*6C
1484085697.61,50000,5.13,72546.0,-18.31,-49.89,-50.11,0,*67
1484085698.88,50001,5.13,72542.5,-18.31,-49.81,-50.25,0,*69
1484085700.15,50002,5.13,72546.0,-18.31,-49.75,-50.11,0,*66
1484085701.42,50003,5.13,72550.0,-18.31,-49.89,-50.11,0,*64
1484085702.69,50004,5.13,72546.3,-18.31,-49.81,-50.25,0,*6C
1484085703.96,50005,5.13,72544.3,-18.31,-49.75,-50.11,0,*61
1484085705.24,50006,5.13,72544.3,-18.31,-49.81,-50.03,0,*6A
1484085706.51,50007,5.13,72546.8,-18.31,-49.89,-50.11,0,*60
1484085707.78,50008,5.13,72546.3,-18.31,-49.81,-50.03,0,*64
1484085709.03,50009,5.13,72546.0,-18.31,-49.75,-49.89,0,*64
1484085710.28,50010,5.13,72546.8,-18.31,-49.75,-49.89,0,*6C
1484085711.56,50011,5.13,72540.5,-18.31,-49.61,-50.11,0,*61
1484085712.87,50012,5.13,72540.8,-18.31,-50.03,-50.33,0,*6E
1484085714.13,50013,5.13,72542.3,-18.29,-50.25,-50.53,0,*64
1484085715.42,50014,5.13,72544.3,-18.31,-50.25,-50.53,0,*6A
1484085716.67,50015,5.13,72544.0,-18.29,-49.89,-50.11,0,*6A
1484085717.94,50016,5.13,72546.0,-18.31,-49.89,-50.11,0,*60
1484085719.21,50017,5.13,72546.5,-18.31,-49.89,-50.11,0,*61
1484085720.48,50018,5.13,72544.5,-18.31,-49.75,-50.03,0,*6E
1484085721.73,50019,5.13,72544.5,-18.31,-49.81,-49.89,0,*6E
1484085723.01,50020,5.13,72542.0,-18.31,-49.81,-50.03,0,*6E
1484085724.23,50021,5.13,72546.3,-18.29,-49.75,-49.89,0,*67
1484085725.48,50022,5.13,72542.8,-18.29,-49.75,-50.03,0,*6E
1484085726.75,50023,5.13,72542.8,-18.31,-49.75,-50.03,0,*66
1484085728.03,50024,5.13,72546.8,-18.29,-50.03,-50.25,0,*65
1484085729.31,50025,5.13,72546.3,-18.29,-50.03,-50.33,0,*63
1484085730.58,50026,5.13,72548.5,-18.29,-50.03,-50.53,0,*66
1484085731.83,50027,5.13,72544.0,-18.29,-49.89,-50.25,0,*6C
1484085733.08,50028,5.13,72540.5,-18.29,-49.75,-50.11,0,*67
1484085734.35,50029,5.13,72546.8,-18.31,-49.81,-50.03,0,*67
1484085735.57,50030,5.13,72548.8,-18.29,-49.75,-49.89,0,*67
1484085736.82,50031,5.13,72544.8,-18.29,-49.61,-49.81,0,*6B
1484085738.08,50032,5.13,72544.0,-18.27,-49.47,-49.75,0,*69
1484085739.34,50033,5.13,72546.0,-18.23,-49.67,-49.81,0,*65
1484085740.61,50034,5.13,72544.3,-18.27,-49.53,-49.81,0,*61
1484085741.86,50035,5.13,72546.3,-18.27,-49.75,-49.81,0,*64
1484085743.13,50036,5.13,72546.0,-18.23,-49.47,-49.67,0,*6A
1484085744.37,50037,5.13,72540.5,-18.23,-49.33,-49.67,0,*68
1484085745.63,50038,5.13,72550.0,-18.27,-49.53,-49.75,0,*66
1484085746.9,50039,5.13,72544.5,-18.27,-49.47,-49.75,0,*62
1484085748.17,50040,5.13,72546.0,-18.23,-49.53,-49.75,0,*6D
1484085749.42,50041,5.13,72544.0,-18.23,-49.67,-49.81,0,*60
1484085750.66,50042,5.13,72550.0,-18.21,-49.67,-50.11,0,*60
1484085751.94,50043,5.13,72550.5,-18.23,-49.81,-50.03,0,*68
1484085753.22,50044,5.13,72546.8,-18.23,-49.81,-50.03,0,*6F
1484085754.47,50045,5.13,72548.0,-18.23,-49.75,-49.97,0,*60
1484085755.73,50046,5.13,72550.8,-18.23,-49.75,-49.97,0,*63
1484085757.01,50047,5.13,72546.5,-18.23,-49.97,-50.03,0,*6B
1484085758.28,50048,5.13,72550.5,-18.23,-49.97,-50.17,0,*61
1484085759.56,50049,5.13,72548.5,-18.23,-49.97,-50.25,0,*61
1484085760.8,50050,5.13,72546.3,-18.21,-49.75,-50.11,0,*60
1484085762.05,50051,5.13,72550.3,-18.21,-49.75,-50.17,0,*67
1484085763.3,50052,5.13,72548.5,-18.21,-49.97,-50.17,0,*68
1484085764.58,50053,5.13,72544.8,-18.21,-50.11,-50.53,0,*6F
1484085765.85,50054,5.13,72546.8,-18.21,-50.11,-50.53,0,*68
1484085767.1,50055,5.13,72548.0,-18.21,-50.11,-50.39,0,*65
1484085768.37,50056,5.13,72548.5,-18.21,-50.17,-50.53,0,*6C
1484085769.62,50057,5.13,72544.3,-18.23,-50.39,-50.47,0,*66
1484085770.89,50058,5.13,72548.3,-18.21,-50.17,-50.61,0,*63
1484085772.16,50059,5.13,72548.0,-18.21,-50.17,-50.53,0,*63
1484085773.43,50060,5.13,72544.0,-18.23,-50.17,-50.47,0,*6E
1484085774.7,50061,5.13,72548.5,-18.23,-50.17,-50.47,0,*6F
1484085775.97,50062,5.13,72550.3,-18.23,-50.17,-50.47,0,*6C
1484085777.27,50063,5.13,72548.3,-18.23,-50.17,-50.61,0,*69
1484085778.57,50064,5.13,72548.8,-18.23,-50.25,-50.61,0,*6F
1484085779.84,50065,5.13,72548.5,-18.23,-50.17,-50.67,0,*69
1484085781.11,50066,5.13,72544.5,-18.23,-50.25,-50.47,0,*69
1484085782.41,50067,5.13,72548.5,-18.23,-50.17,-50.61,0,*6D
1484085783.71,50068,5.13,72546.3,-18.27,-50.17,-50.61,0,*66
1484085784.99,50069,5.13,72548.3,-18.23,-50.39,-50.83,0,*63
1484085786.28,50070,5.13,72550.0,-18.23,-50.25,-50.83,0,*66
1484085787.58,50071,5.13,72548.3,-18.27,-50.25,-50.83,0,*63
1484085788.82,50072,5.13,72554.0,-18.27,-50.47,-50.67,0,*6E
1484085790.09,50073,5.13,72552.5,-18.23,-50.25,-50.67,0,*6F
1484085791.36,50074,5.13,72554.3,-18.23,-50.47,-50.83,0,*66
1484085792.63,50075,5.13,72550.3,-18.27,-50.25,-50.67,0,*6D
1484085793.88,50076,5.13,72548.3,-18.23,-50.39,-50.67,0,*67
1484085795.15,50077,5.13,72550.3,-18.27,-50.25,-50.67,0,*6F
1484085796.43,50078,5.13,72546.3,-18.27,-50.39,-50.61,0,*6B
1484085797.7,50079,5.13,72548.0,-18.27,-50.47,-50.83,0,*6F
1484085798.96,50080,5.13,72554.0,-18.23,-50.47,-50.83,0,*6D
1484085800.26,50081,5.13,72554.8,-18.27,-50.25,-50.83,0,*6C
1484085801.53,50082,5.13,72552.3,-18.27,-50.61,-50.89,0,*65
1484085802.8,50083,5.13,72554.8,-18.27,-50.25,-50.67,0,*64
1484085804.08,50084,5.13,72550.3,-18.27,-50.39,-50.83,0,*64
1484085805.33,50085,5.13,72554.0,-18.27,-50.39,-50.67,0,*6F
1484085806.55,50086,5.13,72550.0,-18.29,-50.47,-50.75,0,*68
1484085807.78,50087,5.13,72552.5,-18.29,-50.53,-50.89,0,*6F
1484085809.02,50088,5.13,72554.8,-18.29,-50.53,-50.89,0,*60
1484085810.27,50089,5.13,72552.0,-18.29,-50.33,-50.67,0,*67
1484085811.52,50090,5.13,72552.8,-18.29,-50.33,-50.75,0,*6C
1484085812.8,50091,5.13,72550.3,-18.31,-50.33,-50.75,0,*64
1484085814.07,50092,5.13,72554.5,-18.29,-50.33,-50.53,0,*6A
1484085815.34,50093,5.13,72554.3,-18.29,-50.33,-50.53,0,*6B
1484085816.63,50094,5.13,72554.5,-18.31,-50.25,-50.33,0,*64
1484085817.9,50095,5.13,72552.0,-18.31,-50.25,-50.47,0,*66
1484085819.17,50096,5.13,72552.0,-18.29,-50.11,-50.33,0,*68
1484085820.46,50097,5.13,72556.8,-18.29,-50.03,-50.33,0,*6A
1484085821.71,50098,5.13,72554.5,-18.29,-50.03,-50.47,0,*66
1484085822.98,50099,5.13,72550.8,-18.29,-50.25,-50.33,0,*60
1484085824.25,50100,5.13,72552.3,-18.31,-50.11,-50.67,0,*6E
1484085825.49,50101,5.13,72548.8,-18.29,-50.25,-50.47,0,*63
1484085826.76,50102,5.13,72554.5,-18.29,-50.11,-50.53,0,*62
1484085828.03,50103,5.13,72548.5,-18.31,-50.25,-50.67,0,*6A
1484085829.25,50104,5.13,72550.5,-18.29,-50.47,-50.67,0,*60
1484085830.5,50105,5.13,72550.3,-18.29,-50.33,-50.89,0,*62
1484085831.73,50106,5.13,72552.0,-18.29,-50.53,-50.89,0,*67
1484085833.02,50107,5.13,72550.5,-18.31,-50.25,-50.53,0,*69
1484085834.29,50108,5.13,72554.5,-18.31,-50.25,-50.67,0,*61
1484085835.53,50109,5.13,72550.5,-18.29,-50.25,-50.67,0,*69
1484085836.78,50110,5.13,72552.3,-18.29,-50.33,-50.75,0,*65
1484085838.03,50111,5.13,72548.8,-18.29,-50.25,-50.67,0,*60
1484085839.32,50112,5.13,72550.5,-18.31,-50.25,-50.53,0,*6D
1484085840.59,50113,5.13,72550.0,-18.29,-50.33,-50.53,0,*62
1484085841.84,50114,5.13,72552.3,-18.29,-50.33,-50.75,0,*61
1484085843.08,50115,5.13,72554.3,-18.29,-50.25,-50.75,0,*67
1484085844.35,50116,5.13,72554.3,-18.31,-50.25,-50.67,0,*6E
1484085845.61,50117,5.13,72556.3,-18.29,-50.25,-50.53,0,*61
1484085846.89,50118,5.13,72554.5,-18.31,-50.33,-50.67,0,*67
1484085848.1,50119,5.13,72552.8,-18.29,-50.47,-50.75,0,*6F
1484085849.38,50120,5.13,72554.0,-18.31,-50.33,-50.75,0,*6F
1484085850.65,50121,5.13,72552.3,-18.31,-50.33,-50.75,0,*6E
1484085851.89,50122,5.13,72554.8,-18.31,-50.47,-50.75,0,*6E
1484085853.17,50123,5.13,72554.8,-18.31,-50.33,-50.75,0,*6C
1484085854.4,50124,5.13,72552.5,-18.31,-50.47,-50.75,0,*68
1484085855.68,50125,5.13,72552.5,-18.31,-50.33,-50.67,0,*69
1484085856.98,50126,5.13,72552.0,-18.31,-50.33,-50.53,0,*6D
1484085858.22,50127,5.13,72554.0,-18.29,-50.33,-50.47,0,*60
1484085859.52,50128,5.13,72554.3,-18.31,-50.11,-50.53,0,*63
1484085860.78,50129,5.13,72556.3,-18.31,-50.25,-50.47,0,*60
1484085862.06,50130,5.13,72554.8,-18.29,-50.11,-50.33,0,*65
1484085863.35,50131,5.13,72554.0,-18.31,-50.25,-50.33,0,*6A
1484085864.63,50132,5.13,72554.3,-18.29,-50.03,-50.03,0,*67
1484085865.9,50133,5.13,72552.5,-18.31,-49.89,-50.11,0,*66
1484085867.15,50134,5.13,72552.3,-18.29,-49.89,-50.25,0,*6F
1484085868.42,50135,5.13,72548.8,-18.29,-50.25,-50.53,0,*61
1484085869.67,50136,5.13,72546.5,-18.29,-50.11,-50.47,0,*60
1484085870.94,50137,5.13,72544.5,-18.31,-50.11,-50.47,0,*68
1484085872.19,50138,5.13,72552.5,-18.29,-49.89,-50.25,0,*63
1484085873.46,50139,5.13,72548.3,-18.31,-49.89,-50.33,0,*6C
1484085874.7,50140,5.13,72548.3,-18.29,-50.25,-50.47,0,*66
1484085875.97,50141,5.13,72548.3,-18.29,-50.25,-50.33,0,*64
1484085877.27,50142,5.13,72546.8,-18.31,-50.03,-50.25,0,*6D
1484085878.52,50143,5.13,72552.0,-18.29,-50.11,-50.67,0,*60
1484085879.77,50144,5.13,72548.5,-18.29,-50.33,-50.67,0,*67
1484085880.99,50145,5.13,72546.8,-18.29,-50.47,-50.67,0,*65
1484085882.26,50146,5.13,72548.8,-18.29,-50.33,-50.53,0,*62
1484085883.53,50147,5.13,72546.8,-18.29,-50.25,-50.53,0,*64
1484085884.78,50148,5.13,72546.8,-18.29,-50.33,-50.75,0,*68
1484085886.05,50149,5.13,72550.0,-18.31,-50.33,-50.89,0,*63
1484085887.26,50150,5.13,72548.5,-18.29,-50.47,-50.89,0,*61
1484085888.5,50151,5.13,72550.0,-18.31,-50.47,-50.89,0,*69
1484085889.76,50152,5.13,72552.3,-18.31,-50.53,-50.89,0,*6F
1484085891.03,50153,5.13,72552.5,-18.31,-50.53,-50.89,0,*6E
1484085892.29,50154,5.13,72552.5,-18.31,-50.53,-50.75,0,*6A
1484085893.53,50155,5.13,72554.5,-18.31,-50.47,-50.75,0,*6E
1484085894.78,50156,5.13,72552.5,-18.29,-50.33,-50.75,0,*67
1484085896.05,50157,5.13,72552.3,-18.31,-50.33,-50.75,0,*6F
1484085897.29,50158,5.13,72552.8,-18.29,-50.25,-50.47,0,*6F
1484085898.56,50159,5.13,72552.3,-18.31,-50.25,-50.67,0,*65
1484085899.83,50160,5.13,72552.3,-18.31,-50.11,-50.47,0,*6A
1484085901.13,50161,5.13,72554.0,-18.31,-50.11,-50.53,0,*6E
1484085902.39,50162,5.13,72552.8,-18.31,-50.25,-50.47,0,*6F
1484085903.68,50163,5.13,72552.8,-18.31,-50.25,-50.53,0,*6B
1484085904.96,50164,5.13,72552.5,-18.31,-50.33,-50.89,0,*6C
1484085906.22,50165,5.13,72554.8,-18.31,-50.33,-50.47,0,*6F
1484085907.5,50166,5.13,72554.5,-18.31,-50.33,-50.75,0,*6D
1484085908.74,50167,5.13,72556.0,-18.31,-50.47,-50.67,0,*6C
1484085910.01,50168,5.13,72556.8,-18.31,-50.53,-50.97,0,*69
1484085911.25,50169,5.13,72554.8,-18.31,-50.47,-50.97,0,*6D
1484085912.52,50170,5.13,72554.3,-18.31,-50.33,-50.89,0,*69
1484085913.81,50171,5.13,72554.0,-18.31,-50.33,-50.53,0,*6F
1484085915.08,50172,5.13,72556.0,-18.31,-50.25,-50.67,0,*6C
1484085916.32,50173,5.13,72554.3,-18.33,-50.25,-50.75,0,*6C
1484085917.62,50174,5.13,72552.0,-18.31,-50.11,-50.53,0,*6A
1484085918.86,50175,5.13,72558.0,-18.31,-50.47,-50.89,0,*6F
1484085920.13,50176,5.13,72556.5,-18.31,-50.33,-50.75,0,*6C
1484085921.43,50177,5.13,72556.3,-18.31,-50.11,-50.53,0,*69
1484085922.7,50178,5.13,72556.8,-18.31,-50.33,-50.67,0,*61
1484085923.98,50179,5.13,72554.8,-18.31,-50.33,-50.89,0,*60
1484085925.28,50180,5.13,72554.8,-18.31,-50.03,-50.33,0,*64
1484085926.53,50181,5.13,72548.5,-18.33,-50.11,-50.39,0,*6E
1484085927.8,50182,5.13,72554.3,-18.31,-49.81,-50.11,0,*64
1484085929.07,50183,5.13,72552.3,-18.31,-49.81,-50.11,0,*65
1484085930.36,50184,5.13,72552.3,-18.31,-49.61,-50.11,0,*6C
1484085931.62,50185,5.13,72552.3,-18.31,-49.61,-49.89,0,*64
1484085932.9,50186,5.13,72552.0,-18.31,-49.81,-50.03,0,*63
1484085934.19,50187,5.13,72548.5,-18.31,-49.19,-49.53,0,*6E
1484085935.45,50188,5.13,72548.5,-18.31,-49.53,-49.75,0,*6B
1484085936.67,50189,5.13,72554.3,-18.29,-49.33,-49.75,0,*65
1484085937.94,50190,5.13,72552.5,-18.29,-49.19,-49.61,0,*60
1484085939.2,50191,5.13,72552.8,-18.29,-49.39,-49.61,0,*63
1484085940.48,50192,5.13,72550.3,-18.27,-49.53,-49.81,0,*6C
1484085941.75,50193,5.13,72548.8,-18.27,-49.67,-50.03,0,*68
1484085943.03,50194,5.13,72550.0,-18.23,-49.81,-50.25,0,*67
1484085944.31,50195,5.13,72552.0,-18.29,-50.11,-50.33,0,*6A
1484085945.55,50196,5.13,72550.5,-18.29,-49.81,-50.11,0,*68
1484085946.8,50197,5.13,72554.3,-18.29,-49.75,-50.03,0,*61
1484085948.08,50198,5.13,72552.8,-18.27,-49.53,-49.97,0,*61
1484085949.33,50199,5.13,72552.8,-18.27,-49.67,-49.97,0,*67
1484085950.61,50200,5.13,72550.3,-18.27,-50.03,-50.39,0,*62
1484085951.87,50201,5.13,72554.5,-18.27,-49.97,-50.39,0,*66
1484085953.14,50202,5.13,72552.3,-18.27,-50.17,-50.47,0,*6C
1484085954.39,50203,5.13,72552.5,-18.23,-49.67,-49.81,0,*64
1484085955.67,50204,5.13,72554.0,-18.27,-49.97,-50.25,0,*6E
1484085956.94,50205,5.13,72558.3,-18.27,-49.97,-50.17,0,*6E
1484085958.22,50206,5.13,72548.8,-18.27,-49.81,-50.17,0,*6A
1484085959.5,50207,5.13,72548.8,-18.27,-49.97,-50.25,0,*6D
1484085960.77,50208,5.13,72552.0,-18.23,-49.97,-50.25,0,*66
1484085962.05,50209,5.13,72552.5,-18.23,-49.81,-50.03,0,*64
1484085963.3,50210,5.13,72550.8,-18.23,-49.67,-49.75,0,*6D
1484085964.55,50211,5.13,72548.3,-18.23,-49.67,-49.81,0,*67
1484085965.83,50212,5.13,72554.0,-18.27,-49.97,-50.17,0,*68
1484085967.08,50213,5.13,72548.0,-18.23,-49.75,-49.97,0,*61
1484085968.33,50214,5.13,72550.5,-18.23,-49.67,-49.81,0,*62
1484085969.61,50215,5.13,72552.3,-18.23,-49.47,-49.81,0,*61
1484085970.88,50216,5.13,72550.5,-18.23,-49.75,-50.17,0,*64
1484085972.13,50217,5.13,72550.8,-18.23,-49.75,-49.97,0,*65
1484085973.4,50218,5.13,72550.5,-18.23,-49.11,-49.67,0,*67
1484085974.67,50219,5.13,72552.5,-18.21,-49.39,-49.47,0,*6C
1484085975.91,50220,5.13,72552.3,-18.21,-49.39,-49.67,0,*64
1484085977.15,50221,5.13,72556.0,-18.21,-49.47,-49.75,0,*6F
1484085978.39,50222,5.13,72554.0,-18.21,-49.47,-49.67,0,*6F
1484085979.63,50223,5.13,72550.8,-18.21,-49.61,-49.89,0,*6A
1484085980.89,50224,5.13,72552.8,-18.19,-49.61,-49.75,0,*65
1484085982.11,50225,5.13,72548.8,-18.21,-49.75,-49.97,0,*66
1484085983.35,50226,5.13,72548.0,-18.21,-49.75,-50.11,0,*63
1484085984.62,50227,5.13,72552.3,-18.19,-49.89,-50.11,0,*6A
1484085985.85,50228,5.13,72554.0,-18.21,-49.89,-49.97,0,*68
1484085987.12,50229,5.13,72554.8,-18.19,-49.75,-50.11,0,*67
1484085988.37,50230,5.13,72548.0,-18.21,-49.97,-50.33,0,*68
1484085989.62,50231,5.13,72550.3,-18.19,-49.67,-49.97,0,*6B
1484085990.87,50232,5.13,72552.0,-18.19,-49.89,-49.97,0,*68
1484085992.14,50233,5.13,72548.5,-18.19,-49.75,-50.11,0,*6C
1484085993.38,50234,5.13,72552.8,-18.21,-49.75,-50.11,0,*60
1484085994.66,50235,5.13,72552.0,-18.21,-50.11,-50.33,0,*6B
1484085995.9,50236,5.13,72550.8,-18.21,-49.75,-50.17,0,*64
1484085997.18,50237,5.13,72554.8,-18.19,-49.89,-50.33,0,*6B
1484085998.43,50238,5.13,72554.8,-18.21,-49.97,-50.33,0,*60
1484085999.7,50239,5.13,72546.0,-18.19,-49.89,-50.11,0,*65
1484086000.97,50240,5.13,72556.0,-18.19,-49.61,-49.97,0,*6B
1484086002.21,50241,5.13,72548.5,-18.17,-49.61,-49.89,0,*6B
1484086003.45,50242,5.13,72556.5,-18.19,-49.67,-49.97,0,*6F
1484086004.7,50243,5.13,72552.5,-18.19,-49.67,-49.89,0,*61
1484086005.94,50244,5.13,72552.5,-18.17,-49.75,-50.11,0,*62
1484086007.21,50245,5.13,72554.0,-18.15,-49.89,-50.03,0,*61
1484086008.45,50246,5.13,72552.0,-18.17,-49.89,-50.11,0,*63
1484086009.69,50247,5.13,72554.0,-18.17,-49.89,-50.17,0,*64
1484086010.93,50248,5.13,72552.3,-18.17,-49.75,-50.17,0,*68
1484086012.16,50249,5.13,72548.3,-18.17,-49.89,-49.97,0,*6A
1484086013.4,50250,5.13,72552.5,-18.17,-49.97,-50.11,0,*6B
1484086014.67,50251,5.13,72548.8,-18.15,-49.81,-50.03,0,*6C
1484086015.92,50252,5.13,72548.3,-18.17,-50.11,-50.39,0,*65
1484086017.17,50253,5.13,72552.5,-18.17,-49.97,-50.33,0,*68
1484086018.42,50254,5.13,72552.3,-18.11,-49.81,-50.25,0,*69
1484086019.69,50255,5.13,72554.3,-18.15,-49.89,-50.25,0,*64
1484086020.93,50256,5.13,72556.0,-18.17,-49.89,-50.11,0,*62
1484086022.23,50257,5.13,72552.8,-18.15,-50.03,-50.33,0,*6B
1484086023.51,50258,5.13,72552.8,-18.15,-50.03,-50.47,0,*67
1484086024.8,50259,5.13,72554.3,-18.15,-50.17,-50.33,0,*60
1484086026.05,50260,5.13,72554.3,-18.17,-50.17,-50.39,0,*62
1484086027.31,50261,5.13,72554.5,-18.17,-50.17,-50.53,0,*6F
1484086028.57,50262,5.13,72552.3,-18.17,-50.33,-50.53,0,*6A
1484086029.87,50263,5.13,72552.3,-18.15,-50.11,-50.53,0,*69
1484086031.18,50264,5.13,72552.0,-18.15,-50.03,-50.33,0,*6B
1484086032.42,50265,5.13,72556.0,-18.17,-50.11,-50.39,0,*61
1484086033.69,50266,5.13,72552.3,-18.17,-50.11,-50.33,0,*68
1484086034.94,50267,5.13,72554.0,-18.17,-49.97,-50.53,0,*69
1484086036.21,50268,5.13,72552.8,-18.15,-50.03,-50.47,0,*64
1484086037.5,50269,5.13,72554.0,-18.15,-50.25,-50.53,0,*64
1484086038.75,50270,5.13,72554.3,-18.17,-50.39,-50.61,0,*62
1484086039.99,50271,5.13,72558.0,-18.17,-50.17,-50.39,0,*62
1484086041.25,50272,5.13,72552.8,-18.17,-50.17,-50.53,0,*6D
1484086042.52,50273,5.13,72552.0,-18.17,-50.17,-50.53,0,*6C
1484086043.76,50274,5.13,72552.3,-18.17,-50.11,-50.39,0,*61
1484086045.03,50275,5.13,72552.0,-18.17,-50.11,-50.33,0,*6A
1484086046.34,50276,5.13,72554.8,-18.15,-50.03,-50.33,0,*68
1484086047.56,50277,5.13,72554.8,-18.17,-49.97,-50.39,0,*64
1484086048.8,50278,5.13,72554.5,-18.17,-50.17,-50.39,0,*6B
1484086050.1,50279,5.13,72556.8,-18.15,-50.03,-50.25,0,*60
1484086051.35,50280,5.13,72552.5,-18.17,-50.11,-50.39,0,*6A
1484086052.62,50281,5.13,72554.0,-18.17,-50.33,-50.61,0,*66
1484086053.91,50282,5.13,72558.0,-18.15,-50.25,-50.53,0,*61
1484086055.21,50283,5.13,72558.3,-18.15,-50.11,-50.53,0,*67
1484086056.47,50284,5.13,72558.8,-18.17,-50.17,-50.53,0,*64
1484086057.73,50285,5.13,72556.3,-18.17,-50.17,-50.53,0,*65
1484086058.97,50286,5.13,72556.3,-18.17,-50.17,-50.39,0,*6A
1484086060.24,50287,5.13,72554.8,-18.17,-50.11,-50.53,0,*61
1484086061.52,50288,5.13,72556.0,-18.15,-49.89,-50.33,0,*63
1484086062.77,50289,5.13,72554.0,-18.17,-50.11,-50.39,0,*63
1484086064.04,50290,5.13,72554.3,-18.17,-50.11,-50.33,0,*61
1484086065.28,50291,5.13,72552.0,-18.17,-50.11,-50.39,0,*6A
1484086066.55,50292,5.13,72554.0,-18.17,-50.11,-50.53,0,*65
1484086067.81,50293,5.13,72554.5,-18.17,-50.17,-50.53,0,*62
1484086069.11,50294,5.13,72554.5,-18.15,-50.11,-50.53,0,*61
1484086070.37,50295,5.13,72556.3,-18.17,-50.17,-50.53,0,*64
1484086071.67,50296,5.13,72552.5,-18.15,-50.11,-50.53,0,*63
1484086072.92,50297,5.13,72552.8,-18.17,-50.33,-50.75,0,*64
1484086074.18,50298,5.13,72552.8,-18.17,-50.17,-50.61,0,*68
1484086075.42,50299,5.13,72554.5,-18.17,-50.39,-50.53,0,*64
1484086076.73,50300,5.13,72554.3,-18.15,-50.11,-50.61,0,*6C
1484086077.95,50301,5.13,72552.8,-18.17,-50.39,-50.75,0,*60
1484086079.17,50302,5.13,72558.5,-18.17,-50.39,-50.75,0,*63
1484086080.42,50303,5.13,72554.0,-18.17,-50.53,-50.83,0,*67
1484086081.67,50304,5.13,72550.8,-18.17,-50.39,-50.83,0,*6C
1484086082.92,50305,5.13,72552.0,-18.19,-50.39,-50.75,0,*6A
1484086084.21,50306,5.13,72554.0,-18.19,-50.17,-50.61,0,*60
1484086085.51,50307,5.13,72554.0,-18.19,-50.17,-50.61,0,*61
1484086086.79,50308,5.13,72550.0,-18.19,-50.39,-50.61,0,*62
1484086088.04,50309,5.13,72552.0,-18.19,-50.39,-50.75,0,*66
1484086089.29,50310,5.13,72554.8,-18.21,-50.39,-50.61,0,*60
1484086090.56,50311,5.13,72550.3,-18.19,-50.33,-50.75,0,*65
1484086091.83,50312,5.13,72550.5,-18.21,-50.61,-50.83,0,*63
1484086093.13,50313,5.13,72550.8,-18.19,-50.61,-50.83,0,*69
1484086094.38,50314,5.13,72552.8,-18.19,-50.39,-50.75,0,*6A
1484086095.63,50315,5.13,72550.0,-18.19,-50.39,-50.75,0,*6B
1484086096.87,50316,5.13,72548.0,-18.21,-50.53,-50.97,0,*63
1484086098.12,50317,5.13,72548.3,-18.21,-50.61,-50.97,0,*63
1484086099.39,50318,5.13,72550.8,-18.21,-50.53,-50.83,0,*68
1484086100.61,50319,5.13,72548.3,-18.21,-50.39,-50.97,0,*60
1484086101.87,50320,5.13,72550.8,-18.21,-50.39,-50.83,0,*6F
1484086103.12,50321,5.13,72550.5,-18.21,-50.39,-50.83,0,*6E
1484086104.38,50322,5.13,72550.3,-18.21,-50.53,-50.83,0,*61
1484086105.65,50323,5.13,72548.0,-18.21,-50.53,-50.83,0,*60